Weather History for Bentonville, AR

Change the Weather History Date:

Monday, November 4, 2013

  Actual Average Record
Temperature  
Mean Temperature 54 °F -  
Max Temperature 57 °F 60 °F 82 °F (1978)
Min Temperature 51 °F 35 °F 13 °F (1991)
Degree Days  
Heating Degree Days 11    
Growing Degree Days 4 (Base 50)    
Moisture  
Dew Point 43 °F    
Average Humidity 67    
Maximum Humidity 88    
Minimum Humidity 58    
Precipitation  
Precipitation 0.00 in - - ()
Sea Level Pressure  
Sea Level Pressure 30.08 in    
Wind  
Wind Speed 10 mph (South)    
Max Wind Speed 17 mph    
Max Gust Speed 23 mph    
Visibility 10 miles    
Events      
Averages and records for this station are not official NWS values.
T = Trace of Precipitation, MM = Missing Value Source: NWS Daily Summary

Daily Weather History Graph

Daily Weather History Graph

Search for Another Location

Airport:

Trip Planner

Search our weather history database for the weather conditions in past years. The results will help you decide how hot, cold, wet, or windy it might be!

Date:

Astronomy

Nov. 04, 2013 Rise Set
Actual Time 6:43 AM CST 5:17 PM CST
Civil Twilight 6:16 AM CST 5:44 PM CST
Nautical Twilight 5:45 AM CST 6:14 PM CST
Astronomical Twilight 5:15 AM CST 6:44 PM CST
Moon 7:52 AM CST (11/4) 6:24 PM CST (11/4)
Length of Visible Light 11h 27m
Length of Day
10h 34m
New Moon, 2% of the Moon is Illuminated
Nov 4
New Moon
Nov 9
First Quarter
Nov 17
Full
Nov 25
Last Quarter
Dec 2
New

Hourly Weather History & Observations

Time (CST) Temp. Dew Point Humidity Pressure Visibility Wind Dir Wind Speed Gust Speed Precip Events Conditions
12:15 AM 51.8 °F 37.4 °F 58% 30.03 in 10.0 mi South 9.2 mph 17.3 mph N/A   Clear
12:35 AM 51.8 °F 37.4 °F 58% 30.02 in 10.0 mi SSE 15.0 mph 21.9 mph N/A   Clear
12:55 AM 51.8 °F 37.4 °F 58% 30.04 in 10.0 mi South 8.1 mph 16.1 mph N/A   Clear
1:15 AM 51.8 °F 37.4 °F 58% 30.03 in 10.0 mi South 9.2 mph - N/A   Clear
1:35 AM 51.8 °F 37.4 °F 58% 30.03 in 10.0 mi South 6.9 mph - N/A   Clear
1:55 AM 51.8 °F 37.4 °F 58% 30.02 in 10.0 mi South 8.1 mph - N/A   Clear
2:15 AM 51.8 °F 37.4 °F 58% 30.05 in 10.0 mi SSW 6.9 mph - N/A   Clear
2:35 AM 51.8 °F 37.4 °F 58% 30.03 in 10.0 mi South 8.1 mph - N/A   Clear
2:55 AM 51.8 °F 37.4 °F 58% 30.03 in 10.0 mi South 6.9 mph - N/A   Clear
3:15 AM 51.8 °F 37.4 °F 58% 30.02 in 10.0 mi South 8.1 mph - N/A   Mostly Cloudy
3:35 AM 51.8 °F 37.4 °F 58% 30.03 in 10.0 mi South 10.4 mph 16.1 mph N/A   Overcast
3:55 AM 51.8 °F 37.4 °F 58% 30.03 in 10.0 mi South 10.4 mph - N/A   Mostly Cloudy
4:15 AM 51.8 °F 37.4 °F 58% 30.03 in 10.0 mi South 9.2 mph - N/A   Mostly Cloudy
4:35 AM 51.8 °F 37.4 °F 58% 30.03 in 10.0 mi South 12.7 mph 17.3 mph N/A   Overcast
4:55 AM 51.8 °F 37.4 °F 58% 30.03 in 10.0 mi SSE 10.4 mph - N/A   Overcast
5:15 AM 51.8 °F 37.4 °F 58% 30.03 in 10.0 mi South 15.0 mph 19.6 mph N/A   Overcast
5:35 AM 51.8 °F 39.2 °F 62% 30.03 in 10.0 mi South 11.5 mph - N/A   Overcast
5:55 AM 51.8 °F 39.2 °F 62% 30.03 in 10.0 mi South 11.5 mph 17.3 mph N/A   Overcast
6:15 AM 51.8 °F 39.2 °F 62% 30.03 in 10.0 mi South 11.5 mph 17.3 mph N/A   Overcast
6:35 AM 51.8 °F 39.2 °F 62% 30.03 in 10.0 mi South 13.8 mph 23.0 mph N/A   Overcast
6:55 AM 51.8 °F 39.2 °F 62% 30.03 in 10.0 mi South 10.4 mph 21.9 mph N/A   Overcast
7:15 AM 51.8 °F 39.2 °F 62% 30.03 in 10.0 mi SSE 10.4 mph - N/A   Overcast
7:35 AM 51.8 °F 39.2 °F 62% 30.03 in 10.0 mi SSE 9.2 mph - N/A   Overcast
7:55 AM 51.8 °F 39.2 °F 62% 30.04 in 10.0 mi SSE 10.4 mph - N/A   Overcast
8:15 AM 51.8 °F 39.2 °F 62% 30.04 in 10.0 mi SSE 12.7 mph - N/A   Overcast
8:35 AM 53.6 °F 41.0 °F 62% 30.05 in 10.0 mi SSE 12.7 mph 17.3 mph N/A   Overcast
8:55 AM 53.6 °F 41.0 °F 62% 30.06 in 10.0 mi South 10.4 mph - N/A   Mostly Cloudy
9:15 AM 53.6 °F 42.8 °F 67% 30.07 in 10.0 mi South 13.8 mph - N/A   Mostly Cloudy
9:35 AM 55.4 °F 42.8 °F 63% 30.08 in 10.0 mi South 11.5 mph 18.4 mph N/A   Mostly Cloudy
9:55 AM 55.4 °F 42.8 °F 63% 30.08 in 10.0 mi South 12.7 mph 18.4 mph N/A   Partly Cloudy
10:15 AM 55.4 °F 42.8 °F 63% 30.10 in 10.0 mi South 11.5 mph 17.3 mph N/A   Mostly Cloudy
10:35 AM 55.4 °F 42.8 °F 63% 30.10 in 10.0 mi South 10.4 mph 16.1 mph N/A   Overcast
10:55 AM 55.4 °F 42.8 °F 63% 30.10 in 10.0 mi South 12.7 mph - N/A   Overcast
11:15 AM 57.2 °F 42.8 °F 59% 30.10 in 10.0 mi South 12.7 mph 17.3 mph N/A   Overcast
11:35 AM 57.2 °F 42.8 °F 59% 30.09 in 10.0 mi South 16.1 mph 20.7 mph N/A   Overcast
11:55 AM 57.2 °F 42.8 °F 59% 30.09 in 10.0 mi South 15.0 mph - N/A   Overcast
12:15 PM 57.2 °F 44.6 °F 63% 30.08 in 10.0 mi South 13.8 mph 17.3 mph N/A   Overcast
12:35 PM 57.2 °F 44.6 °F 63% 30.09 in 10.0 mi South 12.7 mph 18.4 mph N/A   Overcast
12:55 PM 57.2 °F 44.6 °F 63% 30.08 in 10.0 mi South 10.4 mph 18.4 mph N/A   Overcast
1:15 PM 57.2 °F 44.6 °F 63% 30.08 in 10.0 mi South 15.0 mph 20.7 mph N/A   Overcast
1:35 PM 57.2 °F 44.6 °F 63% 30.08 in 10.0 mi South 15.0 mph 21.9 mph N/A   Overcast
1:55 PM 57.2 °F 44.6 °F 63% 30.07 in 10.0 mi South 17.3 mph 23.0 mph N/A   Overcast
2:15 PM 57.2 °F 44.6 °F 63% 30.07 in 10.0 mi South 13.8 mph 21.9 mph N/A   Overcast
2:35 PM 57.2 °F 46.4 °F 67% 30.07 in 10.0 mi South 11.5 mph 16.1 mph N/A   Overcast
2:55 PM 57.2 °F 46.4 °F 67% 30.07 in 10.0 mi South 9.2 mph 17.3 mph N/A   Overcast
3:15 PM 57.2 °F 46.4 °F 67% 30.07 in 10.0 mi South 10.4 mph - N/A   Overcast
3:35 PM 57.2 °F 46.4 °F 67% 30.07 in 10.0 mi South 10.4 mph 17.3 mph N/A   Overcast
3:55 PM 57.2 °F 46.4 °F 67% 30.08 in 10.0 mi South 13.8 mph 19.6 mph N/A   Overcast
4:15 PM 55.4 °F 46.4 °F 72% 30.08 in 10.0 mi South 10.4 mph 17.3 mph N/A   Overcast
4:35 PM 55.4 °F 46.4 °F 72% 30.09 in 10.0 mi South 10.4 mph - N/A   Overcast
4:55 PM 55.4 °F 46.4 °F 72% 30.08 in 10.0 mi South 9.2 mph - N/A   Overcast
5:15 PM 55.4 °F 48.2 °F 77% 30.09 in 10.0 mi South 8.1 mph - N/A   Overcast
5:35 PM 55.4 °F 46.4 °F 72% 30.10 in 10.0 mi South 6.9 mph - N/A   Overcast
5:55 PM 55.4 °F 46.4 °F 72% 30.10 in 10.0 mi South 8.1 mph - N/A   Overcast
6:15 PM 55.4 °F 48.2 °F 77% 30.11 in 10.0 mi South 8.1 mph - N/A   Overcast
6:35 PM 55.4 °F 48.2 °F 77% 30.12 in 10.0 mi South 9.2 mph - N/A   Overcast
6:55 PM 55.4 °F 48.2 °F 77% 30.12 in 10.0 mi South 6.9 mph - N/A   Overcast
7:15 PM 55.4 °F 48.2 °F 77% 30.13 in 10.0 mi South 11.5 mph - N/A   Overcast
7:35 PM 55.4 °F 48.2 °F 77% 30.13 in 10.0 mi South 8.1 mph - N/A   Overcast
7:55 PM 55.4 °F 48.2 °F 77% 30.14 in 10.0 mi South 10.4 mph - N/A   Overcast
8:15 PM 55.4 °F 48.2 °F 77% 30.14 in 10.0 mi South 9.2 mph - N/A   Overcast
8:35 PM 55.4 °F 48.2 °F 77% 30.15 in 10.0 mi South 9.2 mph - N/A   Overcast
8:55 PM 55.4 °F 48.2 °F 77% 30.15 in 10.0 mi SSE 11.5 mph - N/A   Overcast
9:15 PM 55.4 °F 48.2 °F 77% 30.15 in 10.0 mi SSE 5.8 mph - N/A   Overcast
9:35 PM 55.4 °F 48.2 °F 77% 30.15 in 10.0 mi SSE 6.9 mph - N/A   Overcast
9:55 PM 55.4 °F 48.2 °F 77% 30.16 in 10.0 mi SSE 4.6 mph - N/A   Overcast
10:15 PM 55.4 °F 48.2 °F 77% 30.15 in 10.0 mi SE 5.8 mph - N/A   Overcast
10:35 PM 55.4 °F 48.2 °F 77% 30.15 in 10.0 mi SSE 6.9 mph - N/A   Overcast
10:55 PM 55.4 °F 48.2 °F 77% 30.15 in 10.0 mi SSE 5.8 mph - N/A   Overcast
11:15 PM 55.4 °F 48.2 °F 77% 30.15 in 10.0 mi SSE 5.8 mph - N/A   Overcast
11:35 PM 53.6 °F 50.0 °F 88% 30.15 in 10.0 mi SSE 8.1 mph - N/A   Mostly Cloudy
11:55 PM 53.6 °F 50.0 °F 88% 30.15 in 10.0 mi SSE 5.8 mph - N/A   Overcast